#timestamp,LO_Frequency,Hit 
1500706815.0,286047000.3,N
1500706815.9,286047000.3,N
1500706835.8,286046998.4,N
1500706855.6,286046998.3,N
1500706875.4,286047001.1,N
1500706895.3,286046998.6,N
1500706915.1,286046998.5,N
1500706935.9,286046998.4,N
1500706955.7,286047001.2,N
1500706975.5,286046998.8,N
1500706995.4,286046998.1,N
1500707015.2,286046998.1,N
1500707035.0,286046998.3,N
1500707035.9,286046998.3,N
1500707055.8,286047001.0,N
1500707075.6,286046998.5,N
1500707095.5,286046998.9,N
1500707115.3,286046998.9,N
1500707135.1,286046998.8,N
1500707155.9,286046998.7,N
1500707175.7,286046998.4,N
1500707195.5,286046999.4,N
1500707215.4,286046999.0,N
1500707235.2,286046998.6,N
1500707255.1,286046998.8,N
1500707256.0,286046998.8,N
1500707275.8,286046998.7,N
1500707295.6,286046998.6,N
1500707315.5,286046998.8,N
1500707335.3,286046998.7,N
1500707355.1,286046998.7,N
1500707375.9,286046998.8,N
1500707395.7,286046998.3,N
1500707415.6,286046999.2,N
1500707435.4,286046998.8,N
1500707455.2,286046999.0,N
1500707475.1,286046999.5,N
1500707476.0,286046999.5,N
1500707495.8,286046998.7,N
1500707515.6,286046999.2,N
1500707535.5,286046997.5,N
1500707555.3,286046995.0,Y
1500707575.2,286046999.4,N
1500707595.9,286046999.5,N
1500707615.7,286046999.0,N
1500707635.6,286046999.0,N
1500707655.4,286046998.9,N
1500707675.2,286046998.8,N
1500707695.1,286046998.8,N
1500707696.0,286046998.8,N
1500707715.8,286046998.4,N
1500707735.7,286046998.7,N
1500707755.5,286046998.4,N
1500707775.3,286046998.8,N
1500707795.2,286047001.2,N
1500707815.0,286047000.6,N
1500707815.9,286047000.6,N
1500707835.7,286047000.5,N
1500707855.6,286047000.5,N
1500707875.4,286047000.8,N
1500707895.3,286047001.2,N
1500707915.1,286047000.4,N
1500707935.8,286046999.9,N
1500707955.7,286046999.9,N
1500707975.5,286047002.7,N
1500707995.3,286047000.4,N
1500708015.2,286047000.0,N
1500708035.0,286047000.6,N
1500708035.9,286047000.6,N
1500708055.8,286047000.1,N
1500708075.6,286047002.7,N
1500708095.4,286047000.0,N
1500708115.3,286047001.0,N
1500708135.1,286047002.6,N
1500708155.8,286047002.4,N
1500708175.7,286046999.9,N
1500708195.5,286047000.3,N
1500708215.4,286046999.9,N
1500708235.2,286047000.0,N
1500708255.0,286047000.0,N
1500708255.9,286047000.0,N
1500708275.8,286047000.0,N
1500708295.6,286047000.9,N
1500708315.4,286047000.4,N
1500708335.3,286047000.2,N
1500708355.1,286046999.9,N
1500708375.9,286047000.9,N
1500708395.7,286047001.2,N
1500708415.5,286047000.7,N
1500708435.4,286047000.7,N
1500708455.2,286047000.9,N
1500708475.0,286046999.9,N
1500708475.9,286046999.9,N
1500708495.8,286047000.7,N
1500708515.6,286047000.0,N
1500708535.5,286047001.1,N
1500708555.3,286046998.2,N
1500708575.1,286046998.5,N
1500708595.9,286046998.5,N
1500708615.7,286046998.3,N
1500708635.5,286046998.5,N
1500708655.4,286046998.5,N
1500708675.2,286046999.1,N
1500708695.1,286046999.1,N
1500708696.0,286046999.1,N
1500708715.8,286046999.2,N
1500708735.6,286046997.1,N
1500708755.5,286046997.3,N
1500708775.3,286046997.4,N
1500708795.1,286046997.4,N
1500708815.9,286046997.6,N
1500708835.7,286046995.8,Y
1500708855.6,286046995.3,Y
1500708875.4,286046994.9,Y
1500708895.2,286046996.8,N
1500708915.1,286046997.5,N
1500708916.0,286046997.5,N
1500708935.8,286046995.6,N
1500708955.7,286046996.2,N
1500708975.5,286046996.4,N
1500708995.3,286046993.3,Y
1500709015.2,286046995.1,N
1500709035.0,286046995.1,N
1500709035.9,286046995.1,N
1500709055.7,286046996.2,N
1500709075.6,286046995.5,N
1500709095.4,286047011.9,Y
1500709115.3,286046997.2,N
1500709135.1,286046997.1,N
1500709155.8,286046998.0,N
1500709175.7,286046996.0,N
1500709195.5,286046996.0,N
1500709215.3,286046996.2,N
1500709235.2,286046993.5,N
1500709255.0,286046993.9,N
1500709255.9,286046993.9,N
1500709275.8,286046994.4,N
1500709295.6,286046993.3,N
1500709315.4,286046993.4,N
1500709335.3,286046995.9,N
1500709355.1,286046996.4,N
1500709375.8,286046992.5,N
1500709395.7,286046993.0,N
1500709415.5,286046991.7,N
1500709435.4,286046994.2,N
1500709455.2,286046993.8,N
1500709475.0,286046993.6,N
1500709475.9,286046993.6,N
1500709495.8,286046991.7,N
1500709515.6,286046994.2,N
1500709535.4,286046993.4,N
1500709555.3,286046994.2,N
1500709575.1,286046993.6,N
1500709595.9,286046992.1,N
1500709615.7,286046994.7,N
1500709635.5,286046991.9,N
1500709655.4,286046992.5,N
1500709675.2,286046992.0,N
1500709695.0,286046991.4,N
1500709695.9,286046991.4,N
1500709715.8,286046991.1,N
1500709735.6,286046991.5,N
1500709755.5,286046988.9,Y
1500709775.3,286046996.3,N
1500709795.1,286046996.0,N
1500709815.9,286046995.9,N
1500709835.7,286046995.6,N
1500709855.5,286046995.8,N
1500709875.4,286046996.2,N
1500709895.2,286046996.4,N
1500709915.0,286046993.7,N
1500709916.0,286046993.7,N
1500709935.8,286046993.3,N
1500709955.6,286046996.2,N
1500709975.5,286046994.5,N
1500709995.3,286046994.5,N
1500710015.1,286046994.2,N
1500710035.9,286046993.4,N
1500710055.7,286046994.0,Y
1500710075.6,286047000.0,N
1500710095.4,286047002.4,N
1500710115.2,286047001.8,N
1500710135.1,286047004.0,N
1500710136.0,286047004.0,N
1500710155.8,286047002.0,N
1500710175.6,286047001.7,N
1500710195.5,286047002.6,N
1500710215.3,286046999.8,N
1500710235.2,286047002.6,N
1500710255.9,286047000.3,N
1500710275.7,286047000.3,N
1500710295.6,286047001.0,N
1500710315.4,286046999.0,N
1500710335.3,286046999.4,N
1500710355.1,286046998.8,N
1500710356.0,286046998.8,N
1500710375.8,286046996.6,N
1500710395.7,286046999.4,N
